N517CF KPTK-KBTV

Flight info

Callsign N517CF
Flight time 1h 15m
Altitude 41000
Route ZETTR4 TANKO GONZZ LAGGS
Aircraft C750/M-SBDE3FGHRWXY/S

Departure

Time 2026-04-21 01:02
Airport Oakland County International Airport (KPTK)

Arrival

Time 2026-04-21 02:18
Airport Patrick Leahy Burlington International Airport (KBTV)
Time Latitude Longitude Altitude Speed Heading
2026-04-21 00:49 42.66282 -83.42722 978 ft 0 kts 176°
2026-04-21 00:56 42.66281 -83.42724 978 ft 0 kts 206°
2026-04-21 00:57 42.66281 -83.42727 978 ft 0 kts 244°
2026-04-21 00:57 42.66282 -83.42733 978 ft 1 kts 289°
2026-04-21 00:57 42.66299 -83.42734 977 ft 5 kts
2026-04-21 00:57 42.66352 -83.42743 979 ft 9 kts 345°
2026-04-21 00:58 42.66395 -83.42723 981 ft 7 kts 78°
2026-04-21 00:58 42.66400 -83.42628 979 ft 13 kts 88°
2026-04-21 00:58 42.66405 -83.42489 978 ft 16 kts 88°
2026-04-21 00:58 42.66409 -83.42342 977 ft 16 kts 87°
2026-04-21 00:59 42.66414 -83.42186 977 ft 17 kts 88°
2026-04-21 00:59 42.66419 -83.42026 976 ft 17 kts 87°
2026-04-21 00:59 42.66425 -83.41849 976 ft 20 kts 87°
2026-04-21 00:59 42.66431 -83.41648 975 ft 22 kts 87°
2026-04-21 01:00 42.66436 -83.41438 975 ft 23 kts 88°
2026-04-21 01:00 42.66443 -83.41224 975 ft 22 kts 88°
2026-04-21 01:00 42.66447 -83.41058 975 ft 11 kts 88°
2026-04-21 01:00 42.66477 -83.41022 979 ft 5 kts 350°
2026-04-21 01:01 42.66508 -83.41028 976 ft 5 kts 351°
2026-04-21 01:01 42.66535 -83.41056 976 ft 6 kts 269°
2026-04-21 01:01 42.66532 -83.41112 975 ft 0 kts 268°
2026-04-21 01:02 42.66531 -83.41144 975 ft 15 kts 267°
2026-04-21 01:02 42.66512 -83.41759 973 ft 118 kts 267°
2026-04-21 01:02 42.66475 -83.43054 1335 ft 140 kts 267°
2026-04-21 01:02 42.66436 -83.44386 2082 ft 141 kts 266°
2026-04-21 01:03 42.66404 -83.45286 2552 ft 147 kts 266°
2026-04-21 01:03 42.66376 -83.46697 3161 ft 154 kts 268°
2026-04-21 01:03 42.66355 -83.48242 3630 ft 172 kts 268°
2026-04-21 01:03 42.66328 -83.50524 4323 ft 193 kts 268°
2026-04-21 01:04 42.66305 -83.51809 4609 ft 210 kts 268°
2026-04-21 01:04 42.66325 -83.53878 5143 ft 233 kts 276°
2026-04-21 01:04 42.66945 -83.55975 5920 ft 248 kts 298°
2026-04-21 01:04 42.68193 -83.57622 6883 ft 258 kts 327°
2026-04-21 01:05 42.69962 -83.58095 7965 ft 267 kts 358°
2026-04-21 01:05 42.71784 -83.57420 9081 ft 275 kts 20°
2026-04-21 01:05 42.73426 -83.56077 10166 ft 283 kts 32°
2026-04-21 01:05 42.74741 -83.53869 10401 ft 324 kts 58°
2026-04-21 01:06 42.75322 -83.50729 10507 ft 360 kts 80°
2026-04-21 01:06 42.75385 -83.47278 11204 ft 366 kts 86°
2026-04-21 01:06 42.75406 -83.43801 11907 ft 370 kts 84°
2026-04-21 01:06 42.75634 -83.40340 12526 ft 373 kts 78°
2026-04-21 01:07 42.75974 -83.36820 13226 ft 378 kts 78°
2026-04-21 01:07 42.76222 -83.33224 13921 ft 384 kts 81°
2026-04-21 01:07 42.76402 -83.29571 14568 ft 388 kts 81°
2026-04-21 01:07 42.76627 -83.25891 15220 ft 391 kts 79°
2026-04-21 01:08 42.76896 -83.22198 15880 ft 394 kts 79°
2026-04-21 01:08 42.77147 -83.18454 16552 ft 398 kts 79°
2026-04-21 01:08 42.77372 -83.14677 17264 ft 402 kts 80°
2026-04-21 01:08 42.77606 -83.10869 17953 ft 406 kts 79°
2026-04-21 01:09 42.77857 -83.07029 18645 ft 410 kts 79°
2026-04-21 01:09 42.78106 -83.03137 19262 ft 414 kts 79°
2026-04-21 01:09 42.78348 -82.99209 19888 ft 418 kts 79°
2026-04-21 01:09 42.78613 -82.95300 20467 ft 420 kts 76°
2026-04-21 01:10 42.79276 -82.91460 21066 ft 415 kts 65°
2026-04-21 01:10 42.80362 -82.87852 21728 ft 409 kts 55°
2026-04-21 01:10 42.81833 -82.84568 22345 ft 404 kts 46°
2026-04-21 01:10 42.83636 -82.81671 22977 ft 398 kts 37°
2026-04-21 01:11 42.85675 -82.79128 23594 ft 398 kts 33°
2026-04-21 01:11 42.87745 -82.76592 24203 ft 401 kts 34°
2026-04-21 01:11 42.89797 -82.73996 24746 ft 406 kts 36°
2026-04-21 01:11 42.91661 -82.71034 25262 ft 417 kts 44°
2026-04-21 01:12 42.93258 -82.67664 25803 ft 428 kts 52°
2026-04-21 01:12 42.94540 -82.63949 26320 ft 437 kts 58°
2026-04-21 01:12 42.95718 -82.60168 26831 ft 440 kts 58°
2026-04-21 01:12 42.96939 -82.56324 27363 ft 442 kts 57°
2026-04-21 01:13 42.98167 -82.52460 27890 ft 445 kts 57°
2026-04-21 01:13 42.99390 -82.48558 28445 ft 448 kts 58°
2026-04-21 01:13 43.00619 -82.44619 28971 ft 451 kts 58°
2026-04-21 01:13 43.01742 -82.40574 29438 ft 462 kts 64°
2026-04-21 01:14 43.02487 -82.36239 29940 ft 476 kts 71°
2026-04-21 01:14 43.02818 -82.31675 30428 ft 487 kts 78°
2026-04-21 01:14 43.02967 -82.27034 30847 ft 490 kts 79°
2026-04-21 01:14 43.03129 -82.22424 31281 ft 492 kts 78°
2026-04-21 01:15 43.03299 -82.17759 31917 ft 489 kts 78°
2026-04-21 01:15 43.03454 -82.13126 32590 ft 487 kts 78°
2026-04-21 01:15 43.03604 -82.08512 33229 ft 484 kts 78°
2026-04-21 01:15 43.03758 -82.03918 33890 ft 482 kts 78°
2026-04-21 01:16 43.03911 -81.99341 34530 ft 480 kts 78°
2026-04-21 01:16 43.04060 -81.94788 35023 ft 480 kts 78°
2026-04-21 01:16 43.04207 -81.90215 35464 ft 482 kts 79°
2026-04-21 01:16 43.04351 -81.85630 35917 ft 483 kts 79°
2026-04-21 01:17 43.04494 -81.81035 36373 ft 484 kts 79°
2026-04-21 01:17 43.04634 -81.76491 36832 ft 485 kts 80°
2026-04-21 01:17 43.04775 -81.71884 37293 ft 486 kts 80°
2026-04-21 01:17 43.04913 -81.67269 37765 ft 487 kts 80°
2026-04-21 01:18 43.05050 -81.62634 38276 ft 488 kts 81°
2026-04-21 01:18 43.05186 -81.58001 38772 ft 489 kts 81°
2026-04-21 01:18 43.05319 -81.53352 39213 ft 489 kts 81°
2026-04-21 01:18 43.05451 -81.48701 39614 ft 490 kts 81°
2026-04-21 01:19 43.05581 -81.44050 40016 ft 490 kts 82°
2026-04-21 01:19 43.05710 -81.39386 40425 ft 490 kts 82°
2026-04-21 01:19 43.05837 -81.34721 40835 ft 491 kts 82°
2026-04-21 01:19 43.05962 -81.30053 41246 ft 491 kts 82°
2026-04-21 01:20 43.06088 -81.25356 41352 ft 500 kts 82°
2026-04-21 01:20 43.06216 -81.20552 41356 ft 510 kts 82°
2026-04-21 01:20 43.06462 -81.10680 41364 ft 529 kts 83°
2026-04-21 01:21 43.06712 -81.00528 41375 ft 545 kts 83°
2026-04-21 01:21 43.06951 -80.90143 41417 ft 546 kts 83°
2026-04-21 01:22 43.07189 -80.79758 41394 ft 545 kts 83°
2026-04-21 01:22 43.07414 -80.69371 41409 ft 546 kts 83°
2026-04-21 01:23 43.07630 -80.58984 41408 ft 547 kts 83°
2026-04-21 01:23 43.07838 -80.48579 41409 ft 547 kts 83°
2026-04-21 01:24 43.08035 -80.38166 41405 ft 547 kts 84°
2026-04-21 01:24 43.08223 -80.27833 41380 ft 547 kts 84°
2026-04-21 01:25 43.08401 -80.17439 41381 ft 547 kts 84°
2026-04-21 01:25 43.08571 -80.07028 41365 ft 547 kts 84°
2026-04-21 01:26 43.08731 -79.96605 41356 ft 547 kts 84°
2026-04-21 01:26 43.08883 -79.86173 41357 ft 547 kts 84°
2026-04-21 01:27 43.09024 -79.75764 41367 ft 548 kts 84°
2026-04-21 01:27 43.09156 -79.65347 41391 ft 548 kts 84°
2026-04-21 01:28 43.09278 -79.54986 41389 ft 548 kts 84°
2026-04-21 01:28 43.09391 -79.44566 41387 ft 548 kts 84°
2026-04-21 01:29 43.09495 -79.34139 41374 ft 548 kts 85°
2026-04-21 01:29 43.09587 -79.23704 41370 ft 548 kts 85°
2026-04-21 01:30 43.09666 -79.13268 41366 ft 548 kts 85°
2026-04-21 01:30 43.09734 -79.02825 41369 ft 549 kts 85°
2026-04-21 01:31 43.09789 -78.92360 41369 ft 549 kts 85°
2026-04-21 01:31 43.09831 -78.81981 41369 ft 548 kts 85°
2026-04-21 01:32 43.09860 -78.71539 41384 ft 549 kts 85°
2026-04-21 01:32 43.09878 -78.61070 41388 ft 550 kts 86°
2026-04-21 01:33 43.09886 -78.50598 41390 ft 550 kts 86°
2026-04-21 01:33 43.09882 -78.40133 41382 ft 550 kts 86°
2026-04-21 01:34 43.09865 -78.29664 41374 ft 550 kts 86°
2026-04-21 01:34 43.09835 -78.19186 41373 ft 550 kts 86°
2026-04-21 01:35 43.09792 -78.08717 41374 ft 550 kts 86°
2026-04-21 01:35 43.09736 -77.98246 41378 ft 550 kts 86°
2026-04-21 01:36 43.09667 -77.87835 41384 ft 551 kts 87°
2026-04-21 01:36 43.09585 -77.77354 41379 ft 551 kts 87°
2026-04-21 01:37 43.09490 -77.66867 41376 ft 551 kts 87°
2026-04-21 01:37 43.09382 -77.56381 41382 ft 551 kts 87°
2026-04-21 01:38 43.09261 -77.45905 41385 ft 550 kts 87°
2026-04-21 01:38 43.09128 -77.35489 41387 ft 550 kts 88°
2026-04-21 01:39 43.08983 -77.25010 41398 ft 551 kts 88°
2026-04-21 01:39 43.08825 -77.14531 41400 ft 551 kts 88°
2026-04-21 01:40 43.08652 -77.04030 41397 ft 551 kts 88°
2026-04-21 01:40 43.08468 -76.93587 41397 ft 551 kts 88°
2026-04-21 01:41 43.08271 -76.83108 41394 ft 551 kts 88°
2026-04-21 01:41 43.08222 -76.72643 41378 ft 548 kts 82°
2026-04-21 01:42 43.09751 -76.62547 41374 ft 539 kts 66°
2026-04-21 01:42 43.13177 -76.53636 41372 ft 528 kts 50°
2026-04-21 01:43 43.17953 -76.46077 41388 ft 525 kts 43°
2026-04-21 01:43 43.22785 -76.38508 41372 ft 529 kts 49°
2026-04-21 01:44 43.26846 -76.30121 41371 ft 531 kts 54°
2026-04-21 01:44 43.31030 -76.21784 41368 ft 528 kts 49°
2026-04-21 01:45 43.35338 -76.13597 41383 ft 530 kts 52°
2026-04-21 01:45 43.39512 -76.05217 41377 ft 530 kts 50°
2026-04-21 01:46 43.43726 -75.96973 41365 ft 533 kts 55°
2026-04-21 01:46 43.46673 -75.87556 41372 ft 540 kts 69°
2026-04-21 01:47 43.48898 -75.77667 41393 ft 540 kts 68°
2026-04-21 01:47 43.51418 -75.67894 41387 ft 541 kts 68°
2026-04-21 01:48 43.52553 -75.63050 41281 ft 520 kts 69°
2026-04-21 01:48 43.53629 -75.58386 41139 ft 499 kts 69°
2026-04-21 01:48 43.54716 -75.53969 40909 ft 489 kts 68°
2026-04-21 01:48 43.55825 -75.49546 40659 ft 485 kts 68°
2026-04-21 01:49 43.56879 -75.45159 40405 ft 480 kts 68°
2026-04-21 01:49 43.57908 -75.40777 40111 ft 481 kts 68°
2026-04-21 01:49 43.58961 -75.36387 39777 ft 484 kts 68°
2026-04-21 01:49 43.60035 -75.31971 39449 ft 486 kts 68°
2026-04-21 01:50 43.61097 -75.27545 39128 ft 486 kts 68°
2026-04-21 01:50 43.62146 -75.23108 38696 ft 486 kts 68°
2026-04-21 01:50 43.63197 -75.18678 38258 ft 484 kts 68°
2026-04-21 01:50 43.64249 -75.14271 37830 ft 482 kts 68°
2026-04-21 01:51 43.65295 -75.09881 37401 ft 481 kts 68°
2026-04-21 01:51 43.66332 -75.05494 36988 ft 480 kts 68°
2026-04-21 01:51 43.67368 -75.01101 36522 ft 482 kts 68°
2026-04-21 01:51 43.68409 -74.96690 36046 ft 482 kts 68°
2026-04-21 01:52 43.69094 -74.93784 35737 ft 480 kts 68°
2026-04-21 01:52 43.71153 -74.85019 34753 ft 477 kts 67°
2026-04-21 01:52 43.72502 -74.79253 34054 ft 475 kts 67°
2026-04-21 01:53 43.73188 -74.76319 33636 ft 474 kts 67°
2026-04-21 01:53 43.74201 -74.71978 32921 ft 474 kts 66°
2026-04-21 01:53 43.75209 -74.67647 32144 ft 472 kts 66°
2026-04-21 01:53 43.76202 -74.63375 31177 ft 473 kts 66°
2026-04-21 01:54 43.77205 -74.59050 30186 ft 470 kts 65°
2026-04-21 01:54 43.78191 -74.54774 29048 ft 460 kts 65°
2026-04-21 01:54 43.79148 -74.50614 28021 ft 445 kts 65°
2026-04-21 01:54 43.80079 -74.46579 26770 ft 436 kts 65°
2026-04-21 01:55 43.80994 -74.42628 25609 ft 426 kts 64°
2026-04-21 01:55 43.81883 -74.38758 24492 ft 417 kts 64°
2026-04-21 01:55 43.82752 -74.34960 23289 ft 409 kts 66°
2026-04-21 01:55 43.83617 -74.31201 21752 ft 410 kts 67°
2026-04-21 01:56 43.84463 -74.27512 20545 ft 403 kts 68°
2026-04-21 01:56 43.85297 -74.23842 19405 ft 396 kts 68°
2026-04-21 01:56 43.86120 -74.20222 18250 ft 391 kts 69°
2026-04-21 01:56 43.86933 -74.16655 17008 ft 385 kts 69°
2026-04-21 01:57 43.87731 -74.13147 15807 ft 378 kts 69°
2026-04-21 01:57 43.88507 -74.09718 14973 ft 365 kts 70°
2026-04-21 01:57 43.89255 -74.06406 14347 ft 356 kts 70°
2026-04-21 01:57 43.89996 -74.03134 13729 ft 355 kts 70°
2026-04-21 01:58 43.90737 -73.99864 13089 ft 355 kts 70°
2026-04-21 01:58 43.91475 -73.96588 12471 ft 355 kts 70°
2026-04-21 01:58 43.92207 -73.93325 11865 ft 353 kts 70°
2026-04-21 01:58 43.92923 -73.90137 11262 ft 349 kts 70°
2026-04-21 01:59 43.93632 -73.86971 10718 ft 329 kts 71°
2026-04-21 01:59 43.94287 -73.84038 10316 ft 308 kts 71°
2026-04-21 01:59 43.94896 -73.81314 9887 ft 293 kts 70°
2026-04-21 01:59 43.95489 -73.78671 9452 ft 282 kts 70°
2026-04-21 02:00 43.96067 -73.76090 8995 ft 279 kts 71°
2026-04-21 02:00 43.96640 -73.73518 8505 ft 278 kts 70°
2026-04-21 02:00 43.97209 -73.70963 8155 ft 274 kts 70°
2026-04-21 02:00 43.97765 -73.68459 7992 ft 269 kts 70°
2026-04-21 02:01 43.98319 -73.65967 7869 ft 271 kts 70°
2026-04-21 02:01 43.98880 -73.63444 7743 ft 274 kts 71°
2026-04-21 02:01 43.99440 -73.60911 7624 ft 275 kts 71°
2026-04-21 02:01 44.00004 -73.58367 7506 ft 276 kts 71°
2026-04-21 02:02 44.00567 -73.55813 7364 ft 276 kts 71°
2026-04-21 02:02 44.01130 -73.53264 7246 ft 276 kts 71°
2026-04-21 02:02 44.01690 -73.50722 7116 ft 274 kts 71°
2026-04-21 02:02 44.02242 -73.48219 7010 ft 272 kts 71°
2026-04-21 02:03 44.02793 -73.45713 7004 ft 272 kts 71°
2026-04-21 02:03 44.03347 -73.43197 7007 ft 273 kts 71°
2026-04-21 02:03 44.03902 -73.40667 7008 ft 273 kts 71°
2026-04-21 02:03 44.04456 -73.38141 7010 ft 273 kts 71°
2026-04-21 02:04 44.05009 -73.35611 7009 ft 274 kts 71°
2026-04-21 02:04 44.05564 -73.33077 7010 ft 274 kts 71°
2026-04-21 02:04 44.06117 -73.30545 7010 ft 273 kts 71°
2026-04-21 02:04 44.06669 -73.28013 7013 ft 274 kts 71°
2026-04-21 02:05 44.07220 -73.25486 7007 ft 273 kts 71°
2026-04-21 02:05 44.07771 -73.22951 7010 ft 274 kts 71°
2026-04-21 02:05 44.08322 -73.20416 7011 ft 274 kts 71°
2026-04-21 02:05 44.08874 -73.17875 7008 ft 274 kts 71°
2026-04-21 02:06 44.09417 -73.15373 7008 ft 274 kts 71°
2026-04-21 02:06 44.09966 -73.12837 7008 ft 274 kts 71°
2026-04-21 02:06 44.10515 -73.10301 7010 ft 274 kts 71°
2026-04-21 02:06 44.11069 -73.07737 7014 ft 279 kts 71°
2026-04-21 02:07 44.11628 -73.05146 7007 ft 278 kts 71°
2026-04-21 02:07 44.12182 -73.02572 7009 ft 278 kts 71°
2026-04-21 02:07 44.12738 -72.99993 7016 ft 278 kts 71°
2026-04-21 02:07 44.13292 -72.97416 7017 ft 277 kts 71°
2026-04-21 02:08 44.13823 -72.94938 7003 ft 255 kts 71°
2026-04-21 02:08 44.14311 -72.92660 6988 ft 237 kts 71°
2026-04-21 02:08 44.15036 -72.90718 6934 ft 221 kts 44°
2026-04-21 02:08 44.16187 -72.89324 7018 ft 224 kts 37°
2026-04-21 02:09 44.17380 -72.87885 7025 ft 228 kts 38°
2026-04-21 02:09 44.18575 -72.86423 7023 ft 229 kts 38°
2026-04-21 02:09 44.19781 -72.84960 7022 ft 229 kts 37°
2026-04-21 02:09 44.20989 -72.83505 7016 ft 229 kts 37°
2026-04-21 02:10 44.22193 -72.82061 7018 ft 228 kts 37°
2026-04-21 02:10 44.23408 -72.80643 7003 ft 226 kts 32°
2026-04-21 02:10 44.24864 -72.80106 6812 ft 222 kts 351°
2026-04-21 02:10 44.26181 -72.81062 6543 ft 215 kts 311°
2026-04-21 02:11 44.27062 -72.82697 6437 ft 209 kts 307°
2026-04-21 02:11 44.28011 -72.84240 6295 ft 209 kts 309°
2026-04-21 02:11 44.28963 -72.85770 6055 ft 207 kts 309°
2026-04-21 02:11 44.29891 -72.87266 5800 ft 201 kts 310°
2026-04-21 02:12 44.30806 -72.88745 5438 ft 203 kts 310°
2026-04-21 02:12 44.31734 -72.90253 4991 ft 205 kts 310°
2026-04-21 02:12 44.32662 -72.91752 4685 ft 200 kts 310°
2026-04-21 02:12 44.33536 -72.93150 4692 ft 179 kts 311°
2026-04-21 02:13 44.34332 -72.94422 4500 ft 173 kts 310°
2026-04-21 02:13 44.35099 -72.95661 4239 ft 170 kts 310°
2026-04-21 02:13 44.35876 -72.96916 3978 ft 171 kts 310°
2026-04-21 02:13 44.36650 -72.98166 3727 ft 170 kts 310°
2026-04-21 02:14 44.37420 -72.99409 3469 ft 169 kts 310°
2026-04-21 02:14 44.38191 -73.00653 3202 ft 170 kts 311°
2026-04-21 02:14 44.38965 -73.01892 2955 ft 169 kts 311°
2026-04-21 02:14 44.39696 -73.03077 2682 ft 147 kts 311°
2026-04-21 02:15 44.40312 -73.04073 2468 ft 125 kts 311°
2026-04-21 02:15 44.40852 -73.04940 2298 ft 114 kts 311°
2026-04-21 02:15 44.41376 -73.05786 2132 ft 115 kts 311°
2026-04-21 02:15 44.41909 -73.06641 1960 ft 118 kts 311°
2026-04-21 02:16 44.42441 -73.07502 1784 ft 118 kts 311°
2026-04-21 02:16 44.42972 -73.08379 1592 ft 119 kts 311°
2026-04-21 02:16 44.43523 -73.09276 1378 ft 123 kts 311°
2026-04-21 02:16 44.44088 -73.10185 1178 ft 124 kts 312°
2026-04-21 02:17 44.44660 -73.11103 987 ft 125 kts 312°
2026-04-21 02:17 44.45237 -73.12016 818 ft 126 kts 313°
2026-04-21 02:17 44.45808 -73.12935 661 ft 125 kts 310°
2026-04-21 02:17 44.46371 -73.13852 494 ft 124 kts 310°
2026-04-21 02:18 44.46932 -73.14757 352 ft 117 kts 311°
2026-04-21 02:18 44.47385 -73.15492 331 ft 69 kts 310°
2026-04-21 02:18 44.47541 -73.15748 327 ft 15 kts 309°
2026-04-21 02:18 44.47517 -73.15843 327 ft 9 kts 216°
2026-04-21 02:19 44.47468 -73.15887 327 ft 7 kts 190°
2026-04-21 02:19 44.47421 -73.15894 327 ft 6 kts 159°
2026-04-21 02:19 44.47397 -73.15848 328 ft 6 kts 129°
2026-04-21 02:19 44.47372 -73.15808 326 ft 6 kts 131°
2026-04-21 02:20 44.47338 -73.15753 328 ft 9 kts 130°
2026-04-21 02:20 44.47284 -73.15674 329 ft 13 kts 133°
2026-04-21 02:20 44.47213 -73.15560 330 ft 16 kts 129°
2026-04-21 02:20 44.47142 -73.15443 332 ft 15 kts 130°
2026-04-21 02:21 44.47080 -73.15361 334 ft 10 kts 170°
2026-04-21 02:21 44.47014 -73.15348 335 ft 9 kts 171°
2026-04-21 02:21 44.46944 -73.15333 337 ft 13 kts 171°
2026-04-21 02:21 44.46832 -73.15311 338 ft 20 kts 172°
2026-04-21 02:22 44.46683 -73.15278 350 ft 22 kts 171°
2026-04-21 02:22 44.46561 -73.15258 350 ft 14 kts 188°
2026-04-21 02:22 44.46500 -73.15297 348 ft 0 kts 197°